Temp
67 68 66 66 55 49 44 54 67 68 69 74 76 74 72 73 71 65 78 83 82 78 79 79 79 80 80 79 79 78 78 78 78 79 79 79 79 79 79 79 79 79 80 80 81 80 80 80 80
67 69 64 57 48 41 47 56 63 71 76 76 73 73 74 75 81 80 75 81 81 78 79 79 79 79 79 79 78 78 78 78 78 78 79 79 78 78 79 79 79 80 80 81 80 80 80 80 79
67 67 58 52 44 49 54 56 66 72 78 72 72 79 78 76 83 80 79 81 80 78 79 79 79 79 79 79 78 78 78 78 78 79 79 78 78 78 78 79 79 80 81 81 80 80 79 79 79
64 60 55 45 44 51 56 58 67 69 72 73 74 74 81 84 83 81 81 81 79 78 79 79 79 79 79 79 78 78 78 78 78 78 78 78 78 78 78 78 79 80 80 80 80 79 79 79 78
58 51 42 38 43 51 59 64 62 66 67 71 73 73 74 79 81 81 80 81 78 77 78 79 79 79 79 79 79 78 78 78 78 78 78 78 78 78 78 78 78 79 79 79 79 78 78 78 78
52 48 36 42 44 57 61 64 64 65 66 71 72 72 74 78 77 78 81 79 79 77 79 80 79 79 78 78 78 78 78 78 78 78 78 78 77 77 78 78 78 78 79 79 78 77 77 77 77
49 42 38 37 44 52 58 66 63 64 65 67 73 69 73 74 77 79 79 78 79 78 78 79 79 78 78 78 78 77 77 77 77 77 77 77 77 77 77 77 77 78 78 77 77 77 77 76 77
52 47 38 43 50 50 59 65 68 69 67 76 79 68 71 71 77 78 77 75 75 77 78 79 78 79 77 77 78 77 77 77 77 77 77 77 77 77 77 76 76 77 77 77 77 76 76 76 76
54 42 41 45 47 48 54 54 68 75 73 73 74 75 76 76 78 74 73 72 75 77 77 79 78 77 77 76 77 77 78 77 77 77 76 75 74 75 76 76 76 77 77 77 76 76 76 76 76
49 44 48 52 54 50 56 56 62 68 67 70 72 76 80 76 74 71 71 70 72 75 77 78 78 77 76 78 76 75 76 75 74 73 73 72 72 72 75 76 76 77 77 77 76 76 76 77 74
48 47 56 54 58 58 57 57 63 61 61 66 70 72 75 74 73 72 72 73 72 75 76 77 77 76 75 76 76 75 74 74 73 73 72 71 71 72 73 72 74 74 76 74 75 74 74 73 72
42 51 57 55 62 57 55 60 60 62 65 70 73 74 74 74 72 72 72 72 72 73 75 76 76 74 75 76 76 75 75 75 74 73 71 70 70 70 70 70 71 72 72 72 72 72 72 72 72
43 47 52 58 60 57 60 58 58 60 67 70 71 74 71 74 74 74 74 75 72 72 75 75 73 74 75 75 76 74 72 73 74 72 72 71 69 69 70 70 70 71 72 72 72 71 71 72 72
49 49 52 54 53 53 57 60 59 61 67 67 68 68 69 71 75 74 74 73 72 72 73 74 72 74 75 74 73 74 73 73 72 72 72 71 70 69 70 69 70 71 72 72 72 71 71 71 72
51 45 50 51 50 52 55 54 56 65 68 67 67 68 69 70 76 75 75 72 73 73 72 73 72 74 74 73 74 73 72 72 72 72 72 72 70 69 70 70 70 70 71 71 71 71 71 71 72
44 43 35 50 52 55 58 48 59 63 63 64 65 67 69 68 72 76 76 74 74 72 71 73 74 73 72 71 71 72 71 71 71 71 72 72 70 70 69 70 70 71 71 72 71 71 70 70 70
37 31 34 42 51 53 53 48 58 63 61 61 63 65 67 67 68 72 76 75 73 72 71 70 70 70 70 70 70 69 70 70 69 70 71 71 71 71 70 71 72 72 73 72 72 70 70 69 69
32 31 38 39 46 51 48 49 55 58 61 61 62 63 64 66 68 70 74 75 73 72 72 71 71 71 69 67 67 69 69 70 70 69 71 72 72 72 70 72 73 71 71 70 70 70 70 69 68
43 40 38 43 50 45 46 49 54 57 59 58 58 61 62 65 62 67 72 72 71 70 70 71 70 68 69 68 67 67 68 68 69 70 72 72 72 72 70 71 70 69 69 69 70 68 67 67 67
43 39 38 44 50 47 46 46 52 55 59 60 60 60 61 61 61 68 67 69 70 69 71 71 71 67 70 72 69 69 69 70 71 71 72 72 71 71 70 71 69 69 69 69 67 68 66 65 65
40 38 39 39 46 49 46 43 47 54 58 60 62 62 61 63 61 66 66 67 69 69 69 70 69 67 67 68 69 69 70 70 70 70 71 72 72 72 70 70 68 66 68 67 67 67 66 64 65
35 45 45 43 40 31 45 30 43 50 53 57 61 59 61 61 61 64 67 65 67 69 70 70 68 66 66 68 69 69 68 67 68 69 69 69 70 70 69 69 68 68 67 66 66 66 65 65 63
39 46 43 43 42 36 38 32 38 47 49 54 59 62 59 60 61 62 65 67 68 69 68 68 66 64 65 67 69 67 67 67 68 68 65 64 68 69 70 69 68 67 66 65 65 64 64 64 64
48 42 41 39 40 27 35 35 34 42 51 57 58 61 61 60 61 64 65 67 67 67 66 65 63 62 65 66 67 68 67 67 67 65 62 62 62 66 67 67 65 64 63 62 61 60 60 61 60
41 32 21 25 25 25 38 35 39 47 52 55 57 58 61 61 62 61 62 63 64 63 62 63 63 63 65 66 67 67 66 66 66 64 63 63 62 63 63 63 62 61 61 60 58 57 57 56 56
39 35 23 15 22 27 39 31 41 56 60 58 59 60 63 60 62 62 63 65 65 64 62 63 65 66 66 66 67 66 66 66 66 64 64 65 63 63 62 60 59 59 60 58 55 54 55 54 54
37 32 40 29 31 26 32 42 49 52 55 56 57 58 60 62 58 62 64 65 66 64 62 65 66 66 66 65 65 67 67 65 65 64 65 63 60 59 58 58 56 55 55 54 53 52 52 52 52
39 44 30 33 19 23 30 37 39 45 51 55 54 56 58 57 55 61 65 66 66 67 67 67 67 63 61 61 61 61 61 62 60 59 56 56 57 57 56 55 54 53 52 52 51 50 51 50 50
37 35 35 34 27 25 27 34 46 48 46 52 54 54 54 53 56 61 66 67 67 66 64 62 61 60 59 59 60 60 59 58 58 56 56 55 55 55 54 53 52 51 50 50 50 50 49 49 49
45 38 37 30 26 29 29 32 48 47 48 48 51 53 51 55 61 63 65 65 62 61 60 58 58 58 58 59 60 59 59 58 57 56 56 55 53 53 52 52 51 51 49 48 48 48 49 49 49
MSLP
1010.21 1010.28 1010.54 1010.83 1012.04 1012.11 1010.71 1008.94 1007.05 1005.90 1005.21 1004.37 1004.34 1004.57 1004.27 1004.02 1003.74 1003.52 1002.22 1002.60 1002.67 1004.05 1004.23 1005.13 1006.06 1006.84 1007.41 1007.70 1008.22 1008.68 1009.06 1009.51 1010.09 1010.50 1010.89 1011.22 1011.50 1011.84 1012.21 1012.52 1012.74 1012.93 1013.13 1013.38 1013.50 1013.70 1013.90 1014.03 1014.20
1010.24 1010.39 1010.87 1011.52 1012.09 1011.98 1009.83 1007.98 1006.56 1005.21 1004.34 1003.95 1004.00 1003.96 1003.87 1002.99 1002.47 1002.27 1002.60 1003.35 1003.43 1004.08 1005.03 1005.39 1006.10 1006.58 1007.21 1007.71 1008.17 1008.71 1009.27 1009.69 1010.28 1010.78 1011.09 1011.41 1011.69 1012.00 1012.37 1012.74 1012.95 1013.07 1013.23 1013.46 1013.67 1013.84 1014.02 1014.22 1014.36
1010.20 1010.46 1011.46 1011.98 1011.70 1010.26 1008.60 1006.88 1006.28 1005.09 1003.88 1004.16 1003.84 1003.27 1003.04 1002.32 1002.05 1002.05 1002.19 1003.49 1003.98 1004.41 1004.93 1005.66 1005.95 1006.61 1007.33 1007.86 1008.31 1008.80 1009.39 1009.85 1010.48 1011.11 1011.44 1011.59 1011.84 1012.11 1012.46 1012.82 1013.02 1013.17 1013.34 1013.59 1013.76 1014.03 1014.25 1014.38 1014.48
1010.46 1011.35 1012.31 1011.83 1010.67 1008.78 1007.64 1006.55 1005.54 1005.15 1004.46 1004.11 1003.80 1003.24 1002.38 1001.62 1001.82 1002.06 1002.50 1003.35 1003.79 1004.51 1005.10 1005.76 1006.08 1006.67 1007.25 1007.98 1008.47 1009.07 1009.61 1009.98 1010.43 1011.05 1011.48 1011.71 1011.91 1012.17 1012.55 1012.85 1013.19 1013.38 1013.51 1013.74 1013.98 1014.19 1014.44 1014.61 1014.73
1011.02 1012.05 1012.58 1012.00 1010.30 1008.58 1007.34 1006.49 1005.96 1005.47 1004.93 1004.16 1003.87 1002.95 1002.62 1002.30 1002.34 1002.60 1003.27 1003.78 1003.57 1004.93 1005.40 1005.98 1006.54 1006.93 1007.29 1008.00 1008.65 1009.10 1009.67 1010.05 1010.50 1011.06 1011.45 1011.84 1012.15 1012.45 1012.89 1013.23 1013.45 1013.60 1013.73 1013.91 1014.16 1014.36 1014.49 1014.65 1014.75
1011.80 1012.53 1012.89 1011.72 1009.92 1008.12 1006.88 1006.40 1005.99 1005.66 1004.98 1004.39 1003.82 1003.32 1002.40 1002.61 1002.77 1003.13 1003.45 1004.07 1004.46 1004.80 1005.59 1006.01 1006.90 1007.26 1007.66 1008.20 1008.68 1009.18 1009.73 1010.01 1010.56 1011.16 1011.55 1012.01 1012.48 1012.85 1013.11 1013.42 1013.56 1013.67 1013.71 1013.81 1013.99 1014.18 1014.35 1014.43 1014.56
1011.53 1012.52 1011.73 1010.85 1009.40 1008.00 1006.65 1006.20 1005.97 1005.73 1005.18 1004.59 1003.83 1003.90 1002.63 1002.76 1003.06 1003.21 1003.46 1004.45 1004.97 1005.44 1005.97 1005.99 1006.73 1007.42 1007.89 1008.34 1008.65 1009.22 1009.73 1010.08 1010.76 1011.37 1011.78 1012.07 1012.40 1012.70 1012.94 1013.22 1013.47 1013.66 1013.73 1013.85 1013.99 1014.13 1014.19 1014.32 1014.39
1011.14 1011.58 1010.91 1009.70 1008.75 1007.24 1006.26 1005.89 1005.15 1005.28 1004.88 1004.27 1003.92 1003.69 1002.93 1003.25 1003.29 1003.40 1003.91 1004.56 1005.19 1006.02 1006.34 1006.55 1007.03 1007.43 1007.97 1008.42 1008.74 1009.23 1009.67 1010.22 1010.80 1011.44 1011.84 1012.13 1012.27 1012.68 1012.95 1013.18 1013.36 1013.58 1013.69 1013.80 1013.87 1013.92 1013.99 1014.08 1014.19
1010.62 1010.91 1009.41 1008.42 1008.14 1007.27 1006.26 1005.61 1004.77 1003.96 1004.11 1003.64 1003.22 1002.91 1002.85 1003.11 1003.63 1003.93 1004.34 1005.00 1005.41 1006.16 1006.69 1006.79 1007.24 1007.48 1007.91 1008.51 1008.76 1009.39 1009.85 1010.38 1010.84 1011.39 1011.85 1012.15 1012.40 1012.66 1012.93 1013.15 1013.24 1013.35 1013.44 1013.65 1013.82 1013.88 1013.96 1014.05 1014.13
1010.21 1009.42 1007.87 1007.25 1007.06 1006.51 1006.06 1005.82 1004.95 1004.28 1004.13 1003.70 1003.15 1002.56 1002.67 1003.03 1003.66 1003.83 1004.14 1004.48 1005.28 1005.84 1006.50 1006.86 1007.10 1007.58 1007.90 1008.39 1008.90 1009.28 1009.69 1010.33 1010.99 1011.23 1011.66 1012.11 1012.30 1012.50 1012.64 1013.03 1013.25 1013.46 1013.56 1013.73 1013.94 1014.05 1014.12 1014.14 1014.15
1009.10 1007.65 1007.42 1006.71 1006.41 1006.12 1006.03 1005.67 1005.06 1004.66 1004.09 1003.73 1003.30 1002.81 1002.81 1003.00 1003.66 1003.66 1003.71 1003.40 1004.19 1005.50 1006.31 1006.83 1007.14 1007.60 1007.90 1008.26 1008.78 1009.34 1009.79 1010.24 1010.86 1011.20 1011.53 1012.01 1012.31 1012.53 1012.79 1013.11 1013.25 1013.48 1013.54 1013.68 1013.72 1013.82 1013.98 1014.09 1014.25
1008.93 1007.57 1007.53 1006.89 1006.55 1006.24 1005.90 1005.37 1004.72 1004.11 1003.47 1003.40 1003.27 1002.98 1002.77 1002.76 1003.23 1003.56 1003.57 1003.77 1004.30 1005.52 1006.21 1006.92 1007.24 1007.48 1007.80 1007.90 1008.67 1009.13 1009.79 1010.14 1010.66 1011.04 1011.39 1011.77 1012.13 1012.43 1012.65 1012.90 1013.12 1013.25 1013.31 1013.51 1013.76 1013.95 1013.95 1013.97 1014.01
1008.70 1007.85 1007.38 1007.10 1006.82 1006.14 1005.81 1005.04 1004.90 1003.88 1003.79 1003.42 1003.30 1003.00 1002.54 1002.42 1002.66 1003.28 1003.96 1003.74 1004.27 1005.15 1005.93 1006.63 1007.20 1007.33 1007.61 1007.99 1008.66 1009.13 1009.60 1009.95 1010.27 1010.59 1010.89 1011.18 1011.67 1012.13 1012.40 1012.74 1012.98 1013.16 1013.38 1013.54 1013.66 1013.82 1013.78 1013.77 1013.71
1008.19 1007.70 1007.50 1007.03 1006.70 1006.34 1005.65 1004.96 1004.95 1003.34 1003.17 1003.22 1003.12 1002.91 1002.31 1002.30 1002.22 1003.08 1003.63 1003.94 1004.03 1004.84 1005.57 1006.32 1006.98 1007.37 1007.63 1007.89 1008.42 1008.84 1009.30 1009.52 1009.98 1010.19 1010.46 1010.95 1011.31 1011.76 1012.26 1012.70 1012.89 1012.90 1013.10 1013.40 1013.64 1013.88 1013.89 1013.97 1013.85
1008.44 1007.94 1007.38 1006.90 1006.42 1005.96 1005.81 1004.45 1002.27 1003.15 1003.34 1003.07 1002.84 1002.74 1002.02 1001.74 1001.84 1001.99 1002.80 1003.05 1003.04 1003.79 1004.95 1005.85 1006.70 1007.40 1007.77 1007.96 1008.43 1008.80 1009.12 1009.31 1009.69 1009.97 1010.40 1010.93 1011.43 1011.84 1012.27 1012.91 1013.09 1012.92 1013.13 1013.25 1013.31 1013.47 1013.53 1013.72 1013.72
1008.94 1008.23 1007.49 1005.91 1006.06 1005.61 1005.44 1001.36 1002.21 1002.23 1002.54 1002.51 1002.50 1002.32 1001.96 1001.29 1001.16 1001.37 1002.15 1003.17 1003.56 1004.27 1004.80 1005.79 1006.63 1007.40 1007.86 1008.16 1008.43 1008.77 1009.07 1009.30 1009.68 1009.99 1010.45 1010.84 1011.28 1011.88 1012.14 1012.55 1012.67 1012.88 1013.09 1013.13 1013.31 1013.53 1013.65 1013.59 1013.70
1009.15 1008.45 1007.32 1006.49 1005.34 1005.07 1004.60 1002.65 1002.04 1002.01 1002.20 1002.15 1002.22 1001.93 1001.72 1001.17 1001.29 1001.36 1001.57 1002.55 1002.99 1003.63 1004.55 1005.50 1006.39 1007.08 1007.66 1008.11 1008.49 1008.62 1008.86 1009.18 1009.54 1009.97 1010.30 1010.63 1010.99 1011.54 1011.78 1012.18 1012.43 1012.67 1013.07 1013.36 1013.36 1013.55 1013.92 1013.57 1013.41
1009.00 1008.68 1007.61 1006.39 1005.51 1004.91 1004.34 1003.43 1002.77 1002.34 1002.08 1002.05 1002.00 1001.64 1001.58 1001.26 1001.02 1001.21 1001.52 1001.77 1002.63 1003.46 1004.29 1005.31 1005.90 1006.61 1007.67 1008.45 1008.78 1008.87 1009.04 1009.17 1009.26 1009.78 1010.10 1010.66 1011.22 1011.38 1012.01 1012.31 1012.58 1013.09 1013.00 1013.74 1013.28 1013.47 1013.72 1013.73 1013.61
1008.31 1008.16 1007.67 1006.74 1005.64 1005.53 1004.53 1003.93 1003.24 1002.66 1002.12 1001.98 1001.82 1001.84 1001.55 1001.01 1001.37 1001.15 1001.51 1001.51 1003.12 1003.28 1004.12 1005.05 1005.84 1006.20 1007.33 1008.11 1008.68 1009.06 1009.29 1009.59 1009.64 1009.79 1010.05 1010.46 1010.84 1011.41 1011.97 1012.46 1013.02 1013.63 1013.37 1013.82 1013.78 1013.65 1013.88 1013.96 1013.88
1007.74 1007.45 1007.17 1006.81 1006.05 1005.51 1004.46 1003.82 1002.85 1002.19 1001.53 1001.17 1001.36 1001.40 1001.57 1001.01 1001.49 1001.38 1001.83 1002.78 1002.45 1002.35 1003.56 1004.84 1005.52 1006.04 1006.69 1007.45 1008.07 1008.71 1009.36 1009.48 1009.41 1009.59 1009.83 1009.89 1010.59 1011.13 1011.73 1012.25 1012.79 1013.66 1014.08 1013.51 1013.91 1013.56 1013.80 1014.11 1014.05
1006.82 1006.76 1006.82 1006.80 1006.43 1005.44 1005.10 1003.21 1002.30 1001.57 1001.18 1000.74 1000.75 1000.74 1001.21 1000.80 1001.02 1001.66 1001.77 1001.75 1002.01 1002.70 1003.55 1004.24 1005.07 1005.91 1006.75 1007.37 1008.07 1008.70 1009.18 1009.64 1009.77 1010.18 1010.60 1010.84 1011.30 1011.40 1011.86 1012.45 1013.27 1013.08 1013.79 1013.79 1013.50 1013.51 1014.03 1014.12 1014.18
1006.32 1006.20 1006.37 1006.49 1006.63 1006.17 1005.14 1003.67 1001.85 1001.10 1000.85 1000.47 1000.37 1000.76 1000.68 1000.98 1001.12 1001.25 1001.87 1002.23 1002.40 1002.68 1003.34 1004.27 1005.20 1005.95 1006.61 1007.22 1007.97 1008.52 1009.22 1009.83 1010.48 1010.81 1011.20 1011.53 1011.57 1011.74 1011.93 1011.67 1012.21 1014.12 1013.62 1014.09 1013.11 1014.01 1014.11 1014.44 1014.60
1005.28 1005.97 1006.38 1006.52 1006.29 1006.35 1005.59 1005.20 1001.88 1000.76 1000.59 999.87 999.71 999.85 1000.17 1000.76 1000.96 1001.28 1001.64 1001.77 1001.91 1002.75 1003.41 1004.35 1005.28 1006.06 1006.70 1007.41 1008.03 1008.80 1009.67 1010.34 1010.78 1011.27 1012.13 1012.71 1012.35 1012.18 1011.87 1011.93 1011.99 1012.38 1013.01 1013.66 1013.06 1013.88 1014.62 1015.00 1014.85
1005.54 1005.98 1006.45 1006.63 1006.66 1006.63 1005.57 1005.01 1002.32 1000.51 999.32 998.75 998.85 999.41 999.82 1000.53 1001.01 1001.03 1001.04 1001.50 1002.30 1003.11 1003.89 1004.55 1005.49 1006.39 1006.96 1007.61 1008.24 1009.00 1009.71 1010.42 1010.90 1011.83 1012.15 1012.86 1013.07 1012.94 1012.91 1011.61 1012.22 1013.44 1013.95 1013.43 1013.56 1014.52 1015.21 1015.48 1015.43
1005.86 1006.40 1007.08 1007.15 1006.68 1006.03 1005.00 1004.59 1001.74 999.84 998.89 998.48 998.70 999.07 999.28 1000.16 1000.77 1001.16 1001.51 1001.94 1002.67 1003.37 1003.98 1004.75 1005.70 1006.74 1007.36 1008.01 1008.72 1009.35 1009.92 1010.39 1011.26 1012.01 1012.39 1012.84 1013.08 1013.59 1013.21 1012.61 1014.38 1014.48 1014.28 1014.44 1014.71 1015.32 1015.50 1015.94 1016.11
1004.98 1005.79 1006.13 1006.28 1006.17 1005.52 1004.54 1002.92 999.71 998.60 998.11 998.50 998.57 998.57 998.43 999.46 999.98 1000.45 1000.91 1001.50 1002.29 1003.10 1004.02 1005.00 1005.89 1006.85 1007.43 1008.10 1008.67 1009.67 1010.28 1011.10 1011.93 1012.61 1012.67 1013.03 1013.28 1013.56 1014.44 1014.61 1015.10 1015.33 1014.81 1015.46 1015.42 1015.72 1016.23 1016.72 1016.99
1004.51 1005.13 1005.24 1005.59 1005.08 1004.85 1003.81 1001.61 999.55 998.59 998.40 998.30 998.33 998.47 998.30 998.47 999.69 1000.02 1000.76 1001.32 1002.03 1003.07 1004.17 1005.01 1005.96 1006.80 1007.39 1008.24 1008.85 1009.52 1010.27 1010.75 1011.44 1012.61 1013.30 1012.91 1014.08 1014.86 1015.54 1016.15 1016.55 1016.16 1016.30 1016.21 1016.26 1016.69 1017.37 1017.67 1017.14
1003.67 1004.16 1005.28 1005.42 1005.22 1004.28 1002.88 1000.75 999.34 998.04 997.81 998.08 998.27 998.46 998.20 998.41 999.48 1000.04 1000.64 1001.49 1002.33 1003.25 1004.30 1005.37 1006.44 1007.12 1007.79 1008.32 1009.47 1010.02 1010.45 1011.36 1011.85 1012.12 1012.86 1013.74 1015.56 1015.93 1016.75 1017.06 1016.75 1016.84 1016.80 1016.69 1017.20 1017.55 1017.53 1017.16 1016.78
1003.34 1003.57 1004.04 1004.54 1004.71 1003.46 1002.24 999.95 998.46 998.17 997.97 997.91 998.09 998.25 998.26 998.60 999.32 1000.03 1000.98 1001.98 1002.87 1003.67 1004.78 1005.97 1006.95 1007.66 1008.49 1009.25 1010.17 1010.46 1011.38 1012.34 1012.82 1013.37 1014.10 1015.20 1016.05 1016.59 1016.60 1016.89 1016.83 1017.27 1017.43 1017.85 1018.06 1017.50 1017.30 1017.03 1016.64
1002.75 1002.96 1003.56 1003.95 1004.34 1003.31 1002.00 999.63 998.48 998.19 998.01 998.03 997.99 998.03 998.08 998.50 999.26 1000.36 1001.34 1002.28 1003.36 1004.42 1005.58 1006.76 1007.75 1008.48 1009.50 1010.00 1010.39 1011.44 1012.10 1012.93 1013.62 1014.43 1015.31 1016.26 1016.80 1017.30 1017.44 1017.54 1018.05 1018.30 1018.23 1018.07 1017.57 1017.57 1017.68 1017.23 1017.10
Wind_Speed
4 1 1 4 2 4 5 9 3 4 3 5 6 6 9 4 8 7 8 11 16 14 18 21 23 21 20 21 21 21 21 21 19 19 19 19 18 18 16 15 14 13 13 12 11 10 9 9 9
1 3 5 2 5 3 8 6 11 9 5 3 2 2 5 12 5 3 6 4 17 18 13 17 22 22 21 21 21 21 20 20 19 18 18 18 18 17 16 14 13 13 13 12 11 9 9 8 8
2 4 5 5 5 13 11 7 9 5 9 1 3 4 5 5 3 1 7 13 16 15 15 16 23 21 20 20 20 20 20 20 19 17 17 17 16 16 14 13 12 12 12 11 10 8 7 7 8
3 4 4 4 10 11 7 4 7 7 2 4 2 6 5 2 1 4 14 18 18 15 15 19 22 21 21 20 20 19 19 19 19 17 16 16 15 14 13 12 10 10 10 9 8 7 6 6 6
4 3 2 4 8 7 4 7 1 2 2 2 4 6 4 3 4 13 12 13 19 13 13 15 19 20 21 20 20 20 19 18 18 16 16 15 13 12 11 10 9 9 8 7 6 5 5 4 5
3 4 2 11 9 10 7 5 5 5 3 6 6 5 5 6 5 8 12 10 12 16 16 16 18 19 19 20 19 19 18 18 17 16 15 14 12 11 10 8 8 7 7 7 6 5 5 5 5
6 4 7 5 6 10 5 8 7 8 5 6 3 5 8 5 9 10 11 8 10 13 13 16 14 16 18 18 19 18 17 17 15 14 13 14 13 11 10 9 8 7 6 6 6 6 6 6 6
5 5 4 8 11 11 6 6 4 11 12 6 6 7 9 3 10 13 12 11 9 9 11 14 13 13 11 12 18 17 17 16 15 13 14 13 13 11 10 9 8 7 7 7 8 8 7 7 7
4 3 11 9 8 5 1 3 4 4 6 6 9 6 2 11 11 13 13 10 12 10 11 13 15 13 12 10 13 15 17 15 15 13 13 11 5 6 8 8 9 9 9 8 8 7 6 6 6
6 8 12 6 8 4 5 3 5 4 1 3 5 6 7 9 12 15 14 16 14 16 15 13 14 14 12 9 10 9 10 7 6 7 7 5 6 6 7 7 9 9 8 7 6 5 6 7 3
7 14 12 4 7 5 5 5 5 4 10 7 7 6 8 8 13 13 15 18 17 15 12 14 14 14 11 10 7 6 5 5 5 7 7 5 4 4 3 2 2 2 5 2 3 3 3 4 4
5 8 15 2 11 3 4 3 5 12 11 2 5 7 6 7 15 14 15 17 18 16 14 13 14 11 9 8 7 7 6 7 7 7 8 6 4 4 4 3 3 3 3 3 3 3 4 5 6
6 3 2 12 14 8 7 12 7 9 6 7 7 10 11 9 15 12 9 12 16 17 16 15 12 12 10 11 8 8 7 7 9 8 9 7 6 6 4 3 3 3 2 3 4 4 4 5 6
4 3 10 8 7 4 13 17 8 3 9 8 8 10 10 8 14 10 12 14 17 16 17 16 12 10 11 11 12 9 7 8 8 8 8 8 6 5 5 4 4 4 4 3 3 4 4 5 5
6 9 8 7 4 8 3 18 27 14 11 14 10 9 11 8 12 18 16 18 22 19 17 18 14 12 14 11 11 8 8 8 8 7 7 7 5 5 4 2 3 3 3 4 4 4 4 5 4
6 4 3 9 11 7 15 32 4 12 12 15 10 9 10 6 12 14 15 13 13 14 18 16 13 15 14 10 10 7 5 3 3 4 5 7 7 6 5 4 4 3 3 3 3 3 4 3 4
3 5 5 6 9 7 16 8 5 8 8 10 9 9 9 7 7 7 18 16 16 16 17 15 13 14 12 8 5 4 6 5 4 3 4 7 9 8 6 5 3 4 3 2 1 1 3 2 3
6 2 4 3 1 10 10 15 9 1 8 9 9 9 7 7 9 8 13 16 15 14 13 12 12 12 8 4 3 2 3 3 4 5 5 5 4 5 3 1 2 3 1 3 3 2 2 2 3
12 12 9 4 9 4 8 13 11 9 6 8 9 9 7 10 2 4 7 9 12 13 12 13 14 10 9 4 4 2 3 1 2 3 5 6 6 5 5 2 2 1 3 4 3 1 2 2 2
14 13 9 6 10 7 8 10 10 11 13 9 9 9 8 5 5 7 7 16 16 17 16 13 13 10 10 7 4 3 3 2 2 3 5 5 6 6 4 4 5 3 3 4 3 0 1 2 1
14 12 8 8 7 15 11 12 8 5 8 9 10 7 7 11 9 12 9 10 11 14 14 14 13 12 8 6 5 3 4 3 2 3 3 3 4 3 6 6 8 11 5 5 2 2 1 2 2
15 9 8 5 5 6 2 7 6 8 8 9 10 9 9 10 5 9 12 8 10 13 12 11 11 11 8 8 6 5 3 3 3 5 5 8 8 7 6 9 9 8 1 2 4 3 3 1 2
11 8 8 6 6 3 5 3 7 5 8 12 14 15 9 10 12 11 12 14 14 10 11 8 8 8 8 7 6 5 6 5 6 10 14 12 5 7 7 8 8 4 3 2 7 5 5 2 1
2 5 7 3 3 6 9 7 5 6 13 16 7 9 11 11 9 12 14 11 9 5 6 6 8 6 7 7 7 7 9 7 8 11 11 10 6 6 7 9 9 4 4 7 7 6 5 4 3
8 8 2 8 7 5 9 8 13 7 6 6 10 9 10 13 13 12 12 11 7 8 8 7 10 7 8 7 6 6 9 11 15 10 9 7 4 3 4 9 5 4 5 8 6 6 7 6 4
13 11 6 7 7 9 5 10 14 22 15 6 1 10 12 12 15 17 18 15 14 12 8 9 11 11 10 8 6 6 9 7 9 8 8 5 3 4 7 6 6 7 9 7 7 6 5 4 3
5 9 8 2 3 4 5 12 8 7 7 6 7 10 12 11 14 16 16 15 14 11 9 11 12 12 10 10 9 9 12 14 12 11 5 7 8 7 7 7 7 8 8 7 7 6 3 1 1
7 9 6 3 3 5 7 20 11 8 13 11 5 10 10 5 11 13 14 12 10 11 12 13 12 13 13 13 10 10 11 9 12 13 11 12 9 9 7 7 8 8 8 8 6 2 3 3 3
7 4 4 5 4 5 5 9 6 11 2 11 10 7 8 9 12 14 16 13 13 14 15 15 15 15 14 12 11 15 13 12 13 13 12 11 10 7 9 8 9 9 9 5 1 3 6 6 7
6 7 6 6 6 3 2 6 3 4 5 5 7 7 6 10 16 16 19 18 17 16 16 15 15 15 14 13 15 15 14 14 14 13 13 10 11 8 9 9 8 7 6 6 9 8 7 8 8
Wind_Direction
294 34 81 45 67 66 238 239 244 208 212 134 122 179 210 224 187 212 323 166 120 144 143 145 145 141 136 129 127 127 126 126 127 128 131 133 135 135 134 136 136 138 140 140 134 129 130 133 134
234 108 43 84 130 174 243 195 213 217 165 8 205 222 191 241 252 280 79 100 132 134 141 144 143 138 137 134 132 131 132 131 132 135 136 136 135 136 139 141 141 142 144 143 139 139 140 140 140
137 52 105 151 182 214 232 200 212 239 280 129 301 211 191 225 265 233 144 138 135 133 139 151 141 138 137 137 134 133 133 131 132 136 138 138 139 140 143 145 145 146 145 146 143 142 144 146 150
131 26 19 151 220 250 191 159 172 148 322 242 245 271 280 252 23 120 137 144 137 137 142 148 141 141 138 139 135 134 134 134 137 140 141 142 141 142 144 145 147 150 150 146 141 140 143 148 149
42 61 185 243 245 253 214 237 92 101 326 266 342 270 254 63 92 126 132 143 131 130 139 142 142 141 140 139 137 137 138 138 140 143 145 144 141 137 136 139 143 151 154 147 144 146 148 149 151
65 97 136 225 233 252 232 164 180 215 210 295 322 291 268 130 108 127 125 136 137 134 144 144 144 141 139 140 141 141 144 144 144 147 146 142 135 132 134 138 143 151 154 157 160 168 171 169 172
145 123 218 215 249 242 236 149 182 166 193 245 287 311 277 106 124 115 114 112 122 133 142 145 145 143 142 144 143 145 148 144 146 146 143 142 142 144 144 147 155 160 162 165 175 187 192 193 195
138 140 225 210 221 260 187 189 180 197 240 217 188 249 271 55 123 113 106 105 110 135 146 148 143 144 143 149 148 151 147 146 144 147 148 149 150 151 155 164 170 176 181 189 196 201 207 210 216
142 196 229 221 174 203 353 151 215 213 185 204 190 221 172 136 132 121 124 117 132 142 157 153 155 154 149 151 154 150 149 147 146 150 155 153 147 153 171 183 191 194 197 203 210 218 230 243 254
181 214 223 179 188 220 192 178 300 331 192 227 297 286 350 151 166 155 161 153 157 163 166 163 162 160 152 151 153 146 152 146 152 151 152 152 160 173 179 193 203 209 213 217 231 245 252 262 260
207 238 231 230 212 221 242 212 221 219 267 204 232 279 304 178 189 183 175 168 161 162 163 169 165 163 156 152 147 151 144 146 152 154 154 162 167 176 170 188 206 211 223 216 230 243 246 252 262
248 228 246 241 243 275 213 218 223 213 234 274 259 282 296 207 193 197 174 164 156 163 166 169 169 160 159 147 151 154 157 166 170 176 168 166 171 178 184 192 197 204 204 214 228 245 256 257 259
249 258 286 239 262 254 268 254 240 255 246 257 257 278 277 242 200 200 196 158 151 161 168 174 170 166 159 154 159 166 169 170 181 180 181 175 173 184 178 194 202 209 198 216 230 238 252 261 267
267 246 253 276 248 246 257 267 249 217 215 242 243 253 268 252 204 177 174 171 162 158 173 174 177 177 164 166 166 171 175 178 187 184 185 182 174 177 183 193 206 213 203 216 240 252 260 275 278
274 286 280 227 229 236 195 266 239 243 244 264 261 263 272 252 210 184 181 178 169 176 165 178 175 179 181 172 173 177 188 184 182 185 180 180 175 177 166 175 223 226 205 225 231 232 232 258 264
323 273 214 239 186 244 161 256 143 205 196 230 239 245 259 279 201 178 174 179 166 161 171 173 178 184 183 179 182 186 174 166 162 159 162 174 174 178 173 188 219 213 226 231 233 244 266 260 261
254 257 237 309 200 187 194 259 233 184 201 227 224 242 248 283 211 176 166 166 170 165 165 170 169 181 185 182 175 163 160 162 168 157 171 186 186 183 176 195 214 212 231 266 254 324 257 234 237
237 245 306 223 307 211 236 242 297 280 212 232 235 239 247 247 216 173 176 168 165 165 167 169 174 174 159 142 111 131 165 177 167 175 180 169 192 157 145 266 272 292 90 14 308 217 253 325 308
238 268 283 304 300 329 247 258 251 247 235 237 234 251 224 240 134 151 169 124 159 151 155 175 169 155 154 155 153 171 193 163 174 174 166 175 155 150 173 170 234 304 51 252 295 22 350 297 313
228 229 243 282 288 291 293 289 256 213 215 224 225 229 208 238 148 161 156 164 167 157 174 176 175 164 174 178 150 143 146 164 164 176 197 170 164 165 187 117 99 49 8 341 282 72 339 289 313
219 223 222 235 276 288 292 283 232 221 206 214 220 225 180 205 177 178 172 174 169 171 178 176 173 164 165 132 120 86 86 45 68 52 67 62 137 137 126 101 69 72 271 239 282 56 245 334 360
235 209 226 238 219 239 155 287 250 182 206 211 207 199 205 204 192 174 178 172 181 190 183 174 165 159 151 146 141 129 138 120 52 82 66 57 54 81 76 91 93 227 47 286 69 50 52 40 360
242 186 203 235 209 206 246 303 267 170 200 213 208 205 196 185 178 180 183 189 193 174 179 165 134 141 140 141 125 114 91 82 89 77 60 28 22 67 102 138 119 146 120 108 73 57 40 13 359
145 158 182 236 196 232 221 207 269 192 201 217 210 199 180 176 187 191 191 192 187 150 130 141 114 116 126 124 128 123 103 105 94 101 89 68 4 16 15 61 65 63 64 65 68 65 59 49 36
201 140 200 211 201 238 183 223 248 259 261 216 180 186 194 162 179 185 186 190 170 172 159 130 126 130 126 119 134 137 98 94 102 103 107 111 93 73 21 58 46 47 71 60 62 65 60 38 35
185 177 173 192 168 222 192 224 235 228 249 253 166 192 186 168 178 181 187 188 184 184 162 134 141 138 135 139 143 122 119 103 104 104 117 118 114 74 52 53 57 53 63 64 60 53 46 30 19
211 201 209 193 190 111 178 259 297 223 222 224 232 174 199 198 162 175 183 184 179 167 142 137 137 133 115 111 103 120 130 123 127 106 130 102 86 90 82 69 72 63 63 59 60 54 39 299 355
168 164 189 241 195 179 181 232 228 188 208 208 213 201 206 175 142 161 168 158 143 136 129 128 126 105 101 93 97 102 95 111 104 107 96 87 88 91 101 110 82 69 59 49 47 47 14 37 20
178 191 170 148 178 173 171 231 204 237 163 187 199 216 200 153 146 147 144 136 121 114 117 114 106 104 97 101 107 97 102 102 100 96 94 96 96 101 86 76 70 55 46 35 75 65 32 34 28
239 189 189 175 240 245 261 259 252 232 209 232 222 203 146 144 137 132 138 131 115 110 106 105 102 102 102 108 98 97 97 92 92 93 100 106 101 96 89 78 80 80 63 45 43 38 21 29 21